Weather History for KCNC - January, 2013

Change the Weather History Date:

Friday, January 18, 2013

  Actual Average Record
Temperature  
Mean Temperature 42 °F -  
Max Temperature 59 °F 30 °F 61 °F (1951)
Min Temperature 26 °F 13 °F -12 °F (1970)
Degree Days  
Heating Degree Days 22    
Moisture  
Dew Point 29 °F    
Average Humidity 58    
Maximum Humidity 75    
Minimum Humidity 31    
Precipitation  
Precipitation 0.00 in - - ()
Sea Level Pressure  
Sea Level Pressure 30.09 in    
Wind  
Wind Speed 14 mph (SSW)    
Max Wind Speed 31 mph    
Max Gust Speed 39 mph    
Visibility 10 miles    
Events      
Averages and records for this station are not official NWS values.
T = Trace of Precipitation, MM = Missing Value Source: NWS Daily Summary

Daily Weather History Graph

Daily Weather History Graph

Search for Another Location

Airport or City:

Trip Planner

Search our weather history database for the weather conditions in past years. The results will help you decide how hot, cold, wet, or windy it might be!

Date:

Astronomy

Jan. 18, 2013 Rise Set
Actual Time 7:34 AM CST 5:13 PM CST
Civil Twilight 7:04 AM CST 5:43 PM CST
Nautical Twilight 6:30 AM CST 6:17 PM CST
Astronomical Twilight 5:58 AM CST 6:50 PM CST
Moon 11:09 AM CST (1/18) 12:08 AM CST (1/18)
Length of Visible Light 10h 39m
Length of Day
9h 39m
Waxing Crescent, 47% of the Moon is Illuminated
Jan 18
Waxing Crescent
Jan 18
First Quarter
Jan 26
Full
Feb 3
Last Quarter
Feb 10
New

Hourly Weather History & Observations

Time (CST) Temp. Windchill Dew Point Humidity Pressure Visibility Wind Dir Wind Speed Gust Speed Precip Events Conditions
12:15 AM 26.6 °F 20.0 °F 19.4 °F 74% 30.37 in 10.0 mi South 5.8 mph - N/A   Clear
12:35 AM 26.6 °F 19.1 °F 19.4 °F 74% 30.37 in 10.0 mi South 6.9 mph - N/A   Clear
12:55 AM 26.6 °F 19.1 °F 19.4 °F 74% 30.37 in 10.0 mi South 6.9 mph - N/A   Clear
1:15 AM 30.2 °F 21.3 °F 23.0 °F 75% 30.36 in 10.0 mi South 10.4 mph - N/A   Clear
1:35 AM 32.0 °F 23.0 °F 23.0 °F 69% 30.36 in 10.0 mi South 11.5 mph - N/A   Clear
1:55 AM 30.2 °F 20.8 °F 23.0 °F 75% 30.34 in 10.0 mi South 11.5 mph - N/A   Clear
2:15 AM 30.2 °F 20.2 °F 23.0 °F 75% 30.34 in 10.0 mi South 12.7 mph - N/A   Clear
2:35 AM 32.0 °F 22.5 °F 24.8 °F 75% 30.33 in 10.0 mi South 12.7 mph - N/A   Clear
2:55 AM 33.8 °F 23.5 °F 24.8 °F 70% 30.31 in 10.0 mi South 16.1 mph - N/A   Clear
3:15 AM 33.8 °F 23.2 °F 24.8 °F 70% 30.31 in 10.0 mi South 17.3 mph 21.9 mph N/A   Clear
3:35 AM 33.8 °F 23.5 °F 24.8 °F 70% 30.30 in 10.0 mi South 16.1 mph - N/A   Clear
3:55 AM 33.8 °F 23.9 °F 26.6 °F 75% 30.29 in 10.0 mi South 15.0 mph - N/A   Clear
4:15 AM 33.8 °F 23.9 °F 26.6 °F 75% 30.28 in 10.0 mi South 15.0 mph - N/A   Clear
4:35 AM 33.8 °F 24.3 °F 26.6 °F 75% 30.27 in 10.0 mi South 13.8 mph - N/A   Clear
4:55 AM 33.8 °F 24.8 °F 26.6 °F 75% 30.25 in 10.0 mi South 12.7 mph - N/A   Clear
5:15 AM 33.8 °F 24.8 °F 26.6 °F 75% 30.25 in 10.0 mi SSW 12.7 mph 17.3 mph N/A   Clear
5:55 AM 33.8 °F 24.3 °F 26.6 °F 75% 30.23 in 10.0 mi South 13.8 mph - N/A   Clear
6:15 AM 33.8 °F 23.5 °F 26.6 °F 75% 30.22 in 10.0 mi South 16.1 mph - N/A   Clear
6:35 AM 33.8 °F 23.2 °F 26.6 °F 75% 30.21 in 10.0 mi South 17.3 mph - N/A   Clear
6:55 AM 33.8 °F 22.8 °F 26.6 °F 75% 30.20 in 10.0 mi SSW 18.4 mph 24.2 mph N/A   Clear
7:15 AM 33.8 °F 22.5 °F 26.6 °F 75% 30.19 in 10.0 mi South 19.6 mph - N/A   Clear
7:35 AM 35.6 °F 24.0 °F 26.6 °F 70% 30.18 in 10.0 mi South 23.0 mph 27.6 mph N/A   Clear
7:55 AM 35.6 °F 24.5 °F 26.6 °F 70% 30.17 in 10.0 mi South 20.7 mph 26.5 mph N/A   Clear
8:15 AM 35.6 °F 25.2 °F 28.4 °F 75% 30.18 in 10.0 mi SSW 18.4 mph 25.3 mph N/A   Clear
8:35 AM 37.4 °F 26.6 °F 28.4 °F 70% 30.17 in 10.0 mi SSW 21.9 mph 27.6 mph N/A   Clear
8:55 AM 37.4 °F 26.6 °F 28.4 °F 70% 30.17 in 10.0 mi SSW 21.9 mph 29.9 mph N/A   Clear
9:15 AM 39.2 °F 29.3 °F 30.2 °F 70% 30.16 in 10.0 mi SSW 20.7 mph 31.1 mph N/A   Clear
9:35 AM 41.0 °F 31.4 °F 30.2 °F 65% 30.15 in 10.0 mi SSW 21.9 mph 31.1 mph N/A   Clear
9:55 AM 42.8 °F 33.5 °F 30.2 °F 61% 30.14 in 10.0 mi SSW 23.0 mph 32.2 mph N/A   Clear
10:15 AM 44.6 °F 35.7 °F 30.2 °F 57% 30.12 in 10.0 mi SSW 24.2 mph 31.1 mph N/A   Clear
10:35 AM 46.4 °F 37.7 °F 30.2 °F 53% 30.11 in 10.0 mi SSW 26.5 mph 33.4 mph N/A   Clear
10:55 AM 48.2 °F - 30.2 °F 50% 30.09 in 10.0 mi SSW 27.6 mph 36.8 mph N/A   Clear
11:15 AM 50.0 °F - 30.2 °F 47% 30.07 in 10.0 mi SSW 31.1 mph 38.0 mph N/A   Clear
11:35 AM 51.8 °F - 30.2 °F 44% 30.06 in 10.0 mi SSW 25.3 mph 35.7 mph N/A   Clear
11:55 AM 51.8 °F - 30.2 °F 44% 30.04 in 10.0 mi SSW 24.2 mph 36.8 mph N/A   Clear
12:15 PM 53.6 °F - 30.2 °F 41% 30.01 in 10.0 mi SSW 25.3 mph 35.7 mph N/A   Clear
12:35 PM 55.4 °F - 30.2 °F 38% 29.99 in 10.0 mi SSW 27.6 mph 36.8 mph N/A   Clear
12:55 PM 57.2 °F - 28.4 °F 33% 29.97 in 10.0 mi SSW 31.1 mph 39.1 mph N/A   Clear
1:15 PM 55.4 °F - 28.4 °F 36% 29.96 in 10.0 mi SW 28.8 mph 36.8 mph N/A   Clear
1:35 PM 57.2 °F - 28.4 °F 33% 29.95 in 10.0 mi SW 25.3 mph 38.0 mph N/A   Clear
1:55 PM 57.2 °F - 28.4 °F 33% 29.95 in 10.0 mi SW 24.2 mph 34.5 mph N/A   Clear
2:15 PM 57.2 °F - 28.4 °F 33% 29.95 in 10.0 mi SW 25.3 mph 38.0 mph N/A   Clear
2:35 PM 59.0 °F - 28.4 °F 31% 29.95 in 10.0 mi SW 20.7 mph 33.4 mph N/A   Clear
2:55 PM 59.0 °F - 28.4 °F 31% 29.94 in 10.0 mi SW 20.7 mph 33.4 mph N/A   Clear
3:15 PM 59.0 °F - 28.4 °F 31% 29.93 in 10.0 mi SW 25.3 mph 33.4 mph N/A   Clear
3:35 PM 59.0 °F - 28.4 °F 31% 29.94 in 10.0 mi SW 17.3 mph 31.1 mph N/A   Clear
3:55 PM 59.0 °F - 28.4 °F 31% 29.93 in 10.0 mi SW 18.4 mph 27.6 mph N/A   Clear
4:15 PM 57.2 °F - 30.2 °F 36% 29.93 in 10.0 mi SW 16.1 mph 26.5 mph N/A   Clear
4:35 PM 57.2 °F - 30.2 °F 36% 29.93 in 10.0 mi SW 16.1 mph 24.2 mph N/A   Clear
4:55 PM 57.2 °F - 30.2 °F 36% 29.94 in 10.0 mi SW 15.0 mph 24.2 mph N/A   Clear
5:15 PM 55.4 °F - 30.2 °F 38% 29.96 in 10.0 mi SW 10.4 mph - N/A   Clear
5:35 PM 53.6 °F - 30.2 °F 41% 29.96 in 10.0 mi SW 8.1 mph - N/A   Clear
5:55 PM 51.8 °F - 32.0 °F 47% 29.96 in 10.0 mi SSW 9.2 mph - N/A   Clear
6:15 PM 48.2 °F - 32.0 °F 54% 29.96 in 10.0 mi SSW 11.5 mph - N/A   Clear
6:35 PM 48.2 °F - 32.0 °F 54% 29.97 in 10.0 mi SSW 9.2 mph - N/A   Clear
6:55 PM 46.4 °F 42.9 °F 30.2 °F 53% 29.97 in 10.0 mi SSW 6.9 mph - N/A   Clear
7:15 PM 44.6 °F 39.7 °F 30.2 °F 57% 29.97 in 10.0 mi SSW 9.2 mph - N/A   Clear
7:35 PM 46.4 °F 41.9 °F 32.0 °F 57% 29.97 in 10.0 mi SSW 9.2 mph - N/A   Clear
7:55 PM 44.6 °F 40.7 °F 32.0 °F 61% 29.97 in 10.0 mi SW 6.9 mph - N/A   Clear
8:15 PM 44.6 °F 40.2 °F 32.0 °F 61% 29.97 in 10.0 mi SSW 8.1 mph - N/A   Clear
8:35 PM 44.6 °F 39.7 °F 32.0 °F 61% 29.97 in 10.0 mi SW 9.2 mph - N/A   Clear
8:55 PM 46.4 °F 41.1 °F 32.0 °F 57% 29.96 in 10.0 mi SW 11.5 mph - N/A   Clear
9:15 PM 46.4 °F 42.4 °F 32.0 °F 57% 29.96 in 10.0 mi SW 8.1 mph - N/A   Clear
9:35 PM 44.6 °F 40.7 °F 32.0 °F 61% 29.96 in 10.0 mi SW 6.9 mph - N/A   Clear
9:55 PM 42.8 °F 38.0 °F 32.0 °F 66% 29.96 in 10.0 mi SSW 8.1 mph - N/A   Clear
10:15 PM 42.8 °F 37.0 °F 32.0 °F 66% 29.95 in 10.0 mi SSW 10.4 mph - N/A   Clear
10:35 PM 44.6 °F 39.7 °F 32.0 °F 61% 29.94 in 10.0 mi SSW 9.2 mph 16.1 mph N/A   Clear
10:55 PM 44.6 °F 39.2 °F 32.0 °F 61% 29.94 in 10.0 mi SSW 10.4 mph - N/A   Clear
11:15 PM 44.6 °F 39.7 °F 32.0 °F 61% 29.94 in 10.0 mi SSW 9.2 mph - N/A   Clear
11:35 PM 44.6 °F 38.8 °F 32.0 °F 61% 29.93 in 10.0 mi SW 11.5 mph - N/A   Clear
11:55 PM 44.6 °F 40.2 °F 32.0 °F 61% 29.93 in 10.0 mi SW 8.1 mph - N/A   Clear